This is the latest recevied weather packets stored in our database for station/object F4CYQ-10. If no packets are shown the sender has not sent any weather packets the latest 10 day(s).
| Time | Temp. | Humidity | Pressure | Rain* | Wind** | Luminosity | Snow |
|---|---|---|---|---|---|---|---|
| 1777769422 | 18.89° C | 60% | 1014.8 hPa | - | - | - | - |
| 1777768521 | 19.44° C | 60% | 1014.8 hPa | - | - | - | - |
| 1777767803 | 17.78° C | 60% | 1014.9 hPa | - | - | - | - |
| 1777766902 | 17.78° C | 61% | 1015.1 hPa | - | - | - | - |
| 1777766888 | 18.33° C | 61% | 1015.1 hPa | - | - | - | - |
| 1777766001 | 18.33° C | 61% | 1015.1 hPa | - | - | - | - |
| 1777765391 | 20° C | 62% | 1015.2 hPa | - | - | - | - |
| 1777765280 | 18.89° C | 61% | 1015.1 hPa | - | - | - | - |
| 1777764379 | 18.89° C | 61% | 1014.9 hPa | - | - | - | - |
| 1777763478 | 19.44° C | 61% | 1015.1 hPa | - | - | - | - |
| 1777762577 | 20° C | 62% | 1015.2 hPa | - | - | - | - |
| 1777762201 | 18.89° C | 61% | 1015.2 hPa | - | - | - | - |
| 1777761299 | 18.89° C | 61% | 1015.2 hPa | - | - | - | - |
| 1777760398 | 18.89° C | 62% | 1015.2 hPa | - | - | - | - |
| 1777759497 | 20° C | 61% | 1015.1 hPa | - | - | - | - |
| 1777759204 | 18.89° C | 62% | 1015.2 hPa | - | - | - | - |
| 1777758303 | 18.89° C | 62% | 1015.2 hPa | - | - | - | - |
| 1777757402 | 19.44° C | 62% | 1015.3 hPa | - | - | - | - |
| 1777756502 | 20° C | 62% | 1015.2 hPa | - | - | - | - |
| 1777756358 | 18.33° C | 62% | 1015.1 hPa | - | - | - | - |
| 1777756089 | 19.44° C | 62% | 1015.5 hPa | - | - | - | - |
| 1777755457 | 18.33° C | 62% | 1015.1 hPa | - | - | - | - |
| 1777754556 | 18.33° C | 62% | 1015.1 hPa | - | - | - | - |
| 1777753654 | 19.44° C | 62% | 1015.5 hPa | - | - | - | - |
| 1777753509 | 19.44° C | 63% | 1015.4 hPa | - | - | - | - |
* Rain since midnight (hover to see other rain measurements)
** Current wind speed in m/s (hover to see current wind gust speed)